Middlesboro, KY

9:05 AM CDT on May 24, 2018 (GMT -0500)
Middlesboro

Weather History for K1A6 - December, 2012

Change the Weather History Date:

Monday, December 17, 2012

  Actual Average (KLOZ) Record (KLOZ)
Temperature  
Mean Temperature 50 °F -  
Max Temperature 57 °F 43 °F 70 °F (2006)
Min Temperature 44 °F 25 °F 2 °F (1989)
Degree Days  
Heating Degree Days 14    
Moisture  
Dew Point 50 °F    
Average Humidity 97    
Maximum Humidity 100    
Minimum Humidity 88    
Precipitation  
Precipitation 0.08 in - - ()
Sea Level Pressure  
Sea Level Pressure 29.72 in    
Wind  
Wind Speed 2 mph (South)    
Max Wind Speed 9 mph    
Max Gust Speed -    
Visibility 8 miles    
Events Rain    
Averages and records for this station are not official NWS values.
T = Trace of Precipitation, MM = Missing Value Source: NWS Daily Summary

Daily Weather History Graph

Daily Weather History Graph

Search for Another Location

Airport or City:

Astronomy

Dec. 17, 2012 Rise Set
Actual Time 6:41 AM CST 4:21 PM CST
Civil Twilight 6:12 AM CST 4:50 PM CST
Nautical Twilight 5:40 AM CST 5:22 PM CST
Astronomical Twilight 5:08 AM CST 5:54 PM CST
Moon 9:56 AM CST (12/17) 9:34 PM CST (12/17)
Length of Visible Light 10h 37m
Length of Day
9h 39m
Waxing Crescent, 25% of the Moon is Illuminated
Dec 17
Waxing Crescent
Dec 19
First Quarter
Dec 28
Full
Jan 4
Last Quarter
Jan 11
New

Hourly Weather History & Observations

Time (CST) Temp. Dew Point Humidity Pressure Visibility Wind Dir Wind Speed Gust Speed Precip Events Conditions
12:15 AM 53.6 °F 51.8 °F 94% 29.80 in 10.0 mi Calm Calm - N/A   Clear
12:35 AM 53.6 °F 51.8 °F 94% 29.80 in 10.0 mi Calm Calm - N/A   Clear
12:55 AM 53.6 °F 53.6 °F 100% 29.79 in 10.0 mi Calm Calm - N/A   Clear
1:15 AM 51.8 °F 51.8 °F 100% 29.80 in 10.0 mi Calm Calm - N/A   Clear
1:35 AM 50.0 °F 48.2 °F 94% 29.80 in 10.0 mi Calm Calm - N/A   Clear
1:55 AM 48.2 °F 48.2 °F 100% 29.81 in 10.0 mi Calm Calm - N/A   Clear
2:15 AM 48.2 °F 46.4 °F 93% 29.81 in 10.0 mi Calm Calm - N/A   Clear
2:35 AM 46.4 °F 46.4 °F 100% 29.81 in 10.0 mi Calm Calm - N/A   Clear
2:55 AM 46.4 °F 44.6 °F 93% 29.80 in 2.5 mi Calm Calm - N/A   Clear
3:15 AM 44.6 °F 44.6 °F 100% 29.80 in 0.8 mi Calm Calm - N/A   Mostly Cloudy
3:35 AM 44.6 °F 44.6 °F 100% 29.80 in 4.0 mi Calm Calm - N/A   Scattered Clouds
3:55 AM 44.6 °F 44.6 °F 100% 29.80 in 4.0 mi Calm Calm - N/A   Mostly Cloudy
4:15 AM 46.4 °F 44.6 °F 93% 29.79 in 10.0 mi Calm Calm - N/A   Overcast
4:35 AM 46.4 °F 44.6 °F 93% 29.79 in 10.0 mi Calm Calm - N/A   Overcast
4:55 AM 46.4 °F 46.4 °F 100% 29.79 in 10.0 mi Calm Calm - N/A   Overcast
5:15 AM 46.4 °F 46.4 °F 100% 29.80 in 10.0 mi Calm Calm - N/A   Overcast
5:35 AM 48.2 °F 46.4 °F 93% 29.80 in 10.0 mi Calm Calm - N/A   Overcast
5:55 AM 48.2 °F 46.4 °F 93% 29.80 in 10.0 mi Calm Calm - N/A   Overcast
6:15 AM 48.2 °F 48.2 °F 100% 29.80 in 7.0 mi Calm Calm - N/A Rain Light Rain
6:35 AM 48.2 °F 48.2 °F 100% 29.79 in 5.0 mi Calm Calm - N/A Rain Rain
6:55 AM 48.2 °F 48.2 °F 100% 29.78 in 5.0 mi Calm Calm - N/A Rain Rain
7:15 AM 50.0 °F 48.2 °F 94% 29.78 in 4.0 mi Calm Calm - N/A   Light Drizzle
7:35 AM 51.8 °F 50.0 °F 94% 29.77 in 5.0 mi Calm Calm - N/A   Overcast
7:55 AM 51.8 °F 51.8 °F 100% 29.76 in 10.0 mi Calm Calm - N/A   Light Drizzle
8:15 AM 53.6 °F 53.6 °F 100% 29.76 in 10.0 mi South 9.2 mph - N/A   Overcast
8:35 AM 55.4 °F 53.6 °F 94% 29.76 in 10.0 mi SSW 6.9 mph - N/A   Overcast
8:55 AM 55.4 °F 53.6 °F 94% 29.76 in 7.0 mi SSW 8.1 mph - N/A   Overcast
9:15 AM 53.6 °F 53.6 °F 100% 29.76 in 2.5 mi SSW 5.8 mph - N/A Rain Light Rain
9:35 AM 53.6 °F 53.6 °F 100% 29.75 in 2.0 mi Calm Calm - N/A   Light Drizzle
9:55 AM 53.6 °F 53.6 °F 100% 29.75 in 1.8 mi East 3.5 mph - N/A Rain Light Rain
10:15 AM 53.6 °F 53.6 °F 100% 29.74 in 1.8 mi Calm Calm - N/A   Light Drizzle
10:35 AM 55.4 °F 53.6 °F 94% 29.73 in 2.0 mi Calm Calm - N/A Rain Rain
10:55 AM 55.4 °F 53.6 °F 94% 29.72 in 4.0 mi South 4.6 mph - N/A Rain Light Rain
11:15 AM 55.4 °F 55.4 °F 100% 29.70 in 5.0 mi South 6.9 mph - N/A Rain Light Rain
11:35 AM 55.4 °F 53.6 °F 94% 29.69 in 2.5 mi Calm Calm - N/A Rain Light Rain
11:55 AM 55.4 °F 55.4 °F 100% 29.68 in 7.0 mi South 5.8 mph - N/A Rain Light Rain
12:15 PM 55.4 °F 55.4 °F 100% 29.67 in 10.0 mi South 6.9 mph - N/A   Overcast
12:35 PM 55.4 °F 55.4 °F 100% 29.66 in 10.0 mi South 5.8 mph - N/A   Overcast
12:55 PM - - N/A% 29.65 in - South 5.8 mph - N/A   Unknown
1:15 PM 57.2 °F 55.4 °F 94% 29.64 in 10.0 mi SSW 5.8 mph - N/A   Overcast
1:35 PM 57.2 °F 55.4 °F 94% 29.64 in 10.0 mi South 6.9 mph - N/A   Overcast
1:55 PM 57.2 °F 55.4 °F 94% 29.63 in 10.0 mi South 9.2 mph - N/A Rain Light Rain
2:15 PM 57.2 °F 55.4 °F 94% 29.62 in 10.0 mi South 8.1 mph - N/A   Overcast
2:35 PM 57.2 °F 57.2 °F 100% 29.61 in 10.0 mi South 6.9 mph - N/A   Mostly Cloudy
2:55 PM 57.2 °F 57.2 °F 100% 29.60 in 10.0 mi South 5.8 mph - N/A   Scattered Clouds
3:15 PM 57.2 °F 57.2 °F 100% 29.60 in 10.0 mi South 9.2 mph - N/A   Mostly Cloudy
3:35 PM 57.2 °F 55.4 °F 94% 29.60 in 10.0 mi SSW 6.9 mph - N/A   Mostly Cloudy
3:55 PM 57.2 °F 55.4 °F 94% 29.61 in 10.0 mi SW 9.2 mph - N/A   Scattered Clouds
6:35 PM 51.8 °F 48.2 °F 88% 29.68 in 10.0 mi SE 3.5 mph - 0.08 in   Overcast
6:55 PM 50.0 °F 48.2 °F 94% 29.68 in 10.0 mi Calm Calm - N/A   Overcast
7:15 PM 50.0 °F 48.2 °F 94% 29.66 in 10.0 mi East 5.8 mph - N/A Rain Light Rain
7:35 PM 50.0 °F 48.2 °F 94% 29.65 in 10.0 mi Calm Calm - N/A   Overcast
7:55 PM - - N/A% 29.65 in - Calm Calm - N/A   Unknown
8:15 PM 48.2 °F 48.2 °F 100% 29.66 in 10.0 mi Calm Calm - N/A   Overcast
8:35 PM 48.2 °F 46.4 °F 93% 29.66 in 10.0 mi Calm Calm - N/A   Overcast
8:55 PM 48.2 °F 46.4 °F 93% 29.66 in 10.0 mi Calm Calm - N/A   Overcast
9:15 PM 48.2 °F 46.4 °F 93% 29.66 in 10.0 mi Calm Calm - N/A   Overcast
9:35 PM 46.4 °F 46.4 °F 100% 29.66 in 10.0 mi Calm Calm - N/A   Scattered Clouds
9:55 PM 46.4 °F 44.6 °F 93% 29.67 in 5.0 mi Calm Calm - N/A   Clear
10:15 PM 44.6 °F 44.6 °F 100% 29.67 in 7.0 mi Calm Calm - N/A   Clear
10:35 PM 44.6 °F 42.8 °F 93% 29.68 in 1.0 mi Calm Calm - N/A   Overcast
10:55 PM 44.6 °F 42.8 °F 93% 29.68 in 4.0 mi Calm Calm - N/A   Overcast
11:15 PM 44.6 °F 44.6 °F 100% 29.68 in 5.0 mi Calm Calm - N/A   Overcast
11:35 PM 44.6 °F 44.6 °F 100% 29.69 in 5.0 mi Calm Calm - N/A   Overcast
11:55 PM 44.6 °F 44.6 °F 100% 29.69 in 7.0 mi Calm Calm - N/A   Overcast